period_start,C,m1,H,J0,J1,J2,J3,J4,J5,JA,JB,JC,JD,JJ,JK,JN,#
2014-05-15 00:00:52,0.03,0.73,0.00,22.57,28.09,30.90,5.91,30.46,1007.35,2036.95,3236.81,3091.01,3340.74,349.79,321.19,12.57,0000 0000 0000 0000 000000
2014-05-15 00:01:52,0.06,0.73,0.00,22.57,28.09,30.91,6.02,30.54,1007.35,2036.94,3236.43,3090.87,3340.32,350.72,322.38,12.58,0000 0000 0000 0000 000000
2014-05-15 00:02:52,0.13,0.73,0.00,22.57,28.08,30.91,5.91,30.46,1007.34,2036.95,3236.16,3090.55,3340.12,350.70,322.13,12.58,0000 0000 0000 0000 000000
2014-05-15 00:03:53,0.14,0.73,0.00,22.57,28.08,30.91,5.88,30.67,1007.34,2036.96,3236.05,3090.24,3340.02,349.13,321.37,12.59,0000 0000 0000 0000 000000
2014-05-15 00:04:53,0.10,0.73,0.00,22.57,28.08,30.90,5.95,30.46,1007.34,2036.97,3235.92,3090.08,3339.70,349.69,321.02,12.59,0000 0000 0000 0000 000000
2014-05-15 00:05:53,0.11,0.73,0.00,22.57,28.07,30.90,6.00,30.63,1007.33,2036.98,3235.59,3090.02,3339.29,349.60,320.87,12.60,0000 0000 0000 0000 000000
2014-05-15 00:06:54,0.10,0.74,0.00,22.57,28.07,30.90,5.83,30.46,1007.34,2036.97,3235.32,3089.95,3339.13,350.37,322.08,12.61,0000 0000 0000 0000 000000
2014-05-15 00:07:54,0.06,0.74,0.00,22.57,28.07,30.90,5.75,30.58,1007.31,2036.95,3235.11,3089.67,3339.04,349.12,320.66,12.61,0000 0000 0000 0000 000000
2014-05-15 00:08:54,0.09,0.74,0.00,22.57,28.07,30.89,5.90,31.13,1007.17,2036.95,3235.02,3089.31,3338.97,350.71,322.08,12.62,0000 0000 0000 0000 000000
2014-05-15 00:09:54,0.10,0.74,0.00,22.56,28.07,30.89,5.96,30.83,1006.99,2036.97,3234.90,3089.13,3338.78,349.57,320.99,12.62,0000 0000 0000 0000 000000
2014-05-15 00:10:55,0.11,0.74,0.00,22.54,28.07,30.89,5.93,30.96,1006.89,2036.97,3234.74,3089.05,3338.45,349.83,321.20,12.63,0000 0000 0000 0000 000000
2014-05-15 00:11:55,0.09,0.74,0.00,22.54,28.07,30.89,6.06,30.96,1006.87,2036.98,3234.32,3089.01,3338.17,350.69,322.00,12.63,0000 0000 0000 0000 000000
2014-05-15 00:12:55,0.07,0.74,0.00,22.52,28.07,30.89,6.04,31.21,1006.86,2036.97,3234.11,3089.00,3338.06,349.43,320.85,12.64,0000 0000 0000 0000 000000
2014-05-15 00:13:56,0.04,0.74,0.00,22.51,28.07,30.89,5.93,31.00,1006.85,2036.97,3234.04,3088.93,3338.02,349.60,321.16,12.65,0000 0000 0000 0000 000000
2014-05-15 00:14:56,0.04,0.74,0.00,22.48,28.07,30.89,5.84,30.83,1006.85,2036.98,3234.01,3088.75,3337.97,349.26,320.98,12.65,0000 0000 0000 0000 000000
2014-05-15 00:15:56,0.05,0.74,0.00,22.42,28.07,30.90,5.97,31.00,1006.86,2036.96,3233.97,3088.43,3337.83,350.00,321.61,12.66,0000 0000 0000 0000 000000
2014-05-15 00:16:56,0.10,0.74,0.00,22.37,28.07,30.91,6.00,30.96,1006.85,2036.97,3233.69,3088.18,3337.63,350.57,322.06,12.66,0000 0000 0000 0000 000000
2014-05-15 00:17:57,0.13,0.74,0.00,22.33,28.07,30.89,6.07,31.50,1006.85,2036.98,3233.37,3088.08,3337.31,349.94,321.53,12.67,0000 0000 0000 0000 000000
2014-05-15 00:18:57,0.10,0.74,0.00,22.29,28.07,30.85,5.92,31.13,1006.85,2036.98,3233.14,3088.03,3337.13,349.22,320.80,12.68,0000 0000 0000 0000 000000
2014-05-15 00:19:57,0.07,0.74,0.00,22.26,28.06,30.83,6.05,30.88,1006.85,2036.99,3233.05,3088.01,3337.05,350.04,321.38,12.68,0000 0000 0000 0000 000000
2014-05-15 00:20:57,0.03,0.74,0.00,22.22,28.05,30.82,6.01,31.63,1006.85,2036.99,3233.01,3088.00,3337.02,349.88,322.11,12.69,0000 0000 0000 0000 000000
2014-05-15 00:21:58,0.00,0.74,0.00,22.18,28.05,30.76,6.08,31.25,1006.85,2036.99,3232.98,3087.97,3337.00,350.01,321.75,12.69,0000 0000 0000 0000 000000
2014-05-15 00:22:58,0.02,0.74,0.00,22.15,28.05,30.75,5.93,31.17,1006.87,2036.99,3232.78,3087.85,3336.94,349.32,321.61,12.70,0000 0000 0000 0000 000000
2014-05-15 00:23:58,0.07,0.74,0.00,22.12,28.05,30.77,5.95,30.88,1006.85,2036.99,3232.34,3087.56,3336.72,348.70,320.89,12.71,0000 0000 0000 0000 000000
2014-05-15 00:24:58,0.16,0.74,0.00,22.10,28.04,30.78,5.82,31.33,1006.88,2036.99,3232.14,3087.26,3336.35,349.07,320.98,12.71,0000 0000 0000 0000 000000
2014-05-15 00:25:59,0.15,0.74,0.00,22.08,28.03,30.78,5.74,31.25,1006.89,2036.99,3232.04,3087.09,3336.13,348.97,320.58,12.72,0000 0000 0000 0000 000000
2014-05-15 00:26:59,0.06,0.74,0.00,22.06,28.02,30.77,5.95,31.50,1006.90,2036.99,3231.99,3087.03,3336.04,350.27,322.13,12.72,0000 0000 0000 0000 000000
2014-05-15 00:27:59,0.02,0.75,0.00,22.04,28.02,30.81,5.88,31.42,1006.90,2036.99,3231.93,3087.01,3336.01,349.09,321.08,12.73,0000 0000 0000 0000 000000
2014-05-15 00:28:59,0.01,0.75,0.00,22.01,28.01,30.82,6.02,31.13,1007.00,2036.99,3231.76,3087.00,3335.97,350.76,322.68,12.73,0000 0000 0000 0000 000000
2014-05-15 00:30:00,0.04,0.75,0.00,21.99,28.00,30.82,5.92,31.21,1007.05,2036.99,3231.39,3086.95,3335.81,349.52,321.58,12.74,0000 0000 0000 0000 000000
2014-05-15 00:31:00,0.09,0.75,0.00,21.96,28.00,30.78,6.21,31.21,1007.18,2036.99,3231.15,3086.92,3335.47,350.26,321.89,12.75,0000 0000 0000 0000 000000
2014-05-15 00:32:00,0.08,0.75,0.00,21.94,27.98,30.72,6.22,31.17,1007.27,2036.99,3231.05,3086.85,3335.27,351.19,323.24,12.75,0000 0000 0000 0000 000000
2014-05-15 00:33:00,0.06,0.75,0.00,21.91,27.97,30.73,6.06,31.04,1007.31,2036.99,3231.02,3086.58,3335.13,349.94,322.28,12.76,0000 0000 0000 0000 000000
2014-05-15 00:34:01,0.08,0.75,0.00,21.89,27.97,30.68,6.07,31.04,1007.31,2036.99,3231.00,3086.31,3335.05,350.37,322.22,12.76,0000 0000 0000 0000 000000
2014-05-15 00:35:01,0.07,0.75,0.00,21.87,27.95,30.71,5.86,31.21,1007.32,2036.99,3230.98,3086.13,3335.02,349.41,321.69,12.77,0000 0000 0000 0000 000000
2014-05-15 00:36:01,0.05,0.75,0.00,21.84,27.95,30.69,5.98,31.04,1007.34,2036.99,3230.85,3086.06,3335.00,350.06,322.32,12.78,0000 0000 0000 0000 000000
2014-05-15 00:37:01,0.03,0.75,0.00,21.82,27.94,30.67,6.27,31.21,1007.33,2037.01,3230.68,3086.05,3335.00,350.54,323.11,12.78,0000 0000 0000 0000 000000
2014-05-15 00:38:02,0.05,0.75,0.00,21.80,27.92,30.65,6.11,31.13,1007.34,2037.01,3230.43,3086.02,3335.00,350.74,323.01,12.79,0000 0000 0000 0000 000000
2014-05-15 00:39:02,0.02,0.75,0.00,21.78,27.91,30.63,6.24,31.13,1007.34,2037.03,3230.25,3086.00,3335.00,348.83,321.12,12.79,0000 0000 0000 0000 000000
2014-05-15 00:40:02,0.05,0.75,0.00,21.76,27.90,30.60,5.83,30.75,1007.34,2037.03,3230.09,3086.00,3334.95,349.16,321.35,12.80,0000 0000 0000 0000 000000
2014-05-15 00:41:02,0.04,0.75,0.00,21.74,27.89,30.59,5.87,30.88,1007.34,2037.13,3230.03,3086.00,3334.90,349.59,322.01,12.80,0000 0000 0000 0000 000000
2014-05-15 00:42:03,0.07,0.75,0.00,21.72,27.87,30.53,5.91,30.92,1007.34,2037.15,3230.01,3086.00,3334.70,349.89,321.69,12.81,0000 0000 0000 0000 000000
2014-05-15 00:43:03,0.05,0.75,0.00,21.70,27.87,30.51,5.98,30.92,1007.34,2037.35,3230.00,3086.00,3334.56,350.16,322.57,12.82,0000 0000 0000 0000 000000
2014-05-15 00:44:03,0.19,0.75,0.00,21.70,27.85,30.48,6.13,31.21,1007.34,2037.62,3230.00,3086.00,3334.50,350.52,322.37,12.82,0000 0000 0000 0000 000000
2014-05-15 00:45:03,0.21,0.75,0.00,21.70,27.84,30.47,6.13,31.21,1007.34,2037.79,3229.99,3086.00,3334.26,350.53,322.92,12.83,0000 0000 0000 0000 000000
2014-05-15 00:46:03,0.17,0.75,0.00,21.69,27.82,30.41,5.85,31.17,1007.34,2037.86,3229.95,3085.98,3334.11,349.31,321.38,12.83,0000 0000 0000 0000 000000
2014-05-15 00:47:04,0.08,0.75,0.00,21.68,27.82,30.46,5.83,31.04,1007.34,2037.91,3229.95,3085.95,3334.04,349.17,321.85,12.84,0000 0000 0000 0000 000000
2014-05-15 00:48:04,0.05,0.75,0.00,21.67,27.80,30.42,5.98,31.13,1007.34,2037.94,3229.87,3085.80,3334.01,349.11,321.64,12.85,0000 0000 0000 0000 000000
2014-05-15 00:49:04,0.08,0.75,0.00,21.66,27.79,30.41,6.14,31.42,1007.34,2037.95,3229.54,3085.50,3334.00,350.95,323.34,12.85,0000 0000 0000 0000 000000
2014-05-15 00:50:04,0.12,0.76,0.00,21.65,27.77,30.37,6.07,31.13,1007.34,2037.97,3229.27,3085.33,3334.00,349.91,322.40,12.86,0000 0000 0000 0000 000000
2014-05-15 00:51:05,0.07,0.76,0.00,21.64,27.75,30.39,6.22,31.17,1007.34,2037.97,3229.11,3085.21,3334.00,351.15,323.55,12.86,0000 0000 0000 0000 000000
2014-05-15 00:52:05,0.05,0.76,0.00,21.63,27.75,30.37,6.01,31.08,1007.34,2037.96,3229.05,3085.11,3333.98,350.18,322.67,12.87,0000 0000 0000 0000 000000
2014-05-15 00:53:05,0.01,0.76,0.00,21.63,27.73,30.34,6.00,31.17,1007.36,2037.98,3229.01,3085.07,3333.98,349.37,321.84,12.88,0000 0000 0000 0000 000000
2014-05-15 00:54:05,0.03,0.76,0.00,21.62,27.72,30.31,6.03,30.79,1007.36,2037.99,3229.00,3085.07,3333.96,350.43,322.42,12.88,0000 0000 0000 0000 000000
2014-05-15 00:55:06,0.01,0.76,0.00,21.61,27.70,30.29,6.11,31.25,1007.35,2037.99,3229.00,3085.08,3333.98,350.44,323.17,12.89,0000 0000 0000 0000 000000
2014-05-15 00:56:06,0.00,0.76,0.00,21.60,27.69,30.28,6.00,31.13,1007.36,2037.99,3229.00,3085.05,3333.98,348.25,320.80,12.89,0000 0000 0000 0000 000000
2014-05-15 00:57:06,0.00,0.76,0.00,21.60,27.67,30.20,6.06,31.13,1007.34,2037.99,3229.00,3085.04,3333.99,349.24,322.14,12.90,0000 0000 0000 0000 000000
2014-05-15 00:58:06,0.00,0.76,0.00,21.58,27.66,30.19,5.83,31.08,1007.34,2038.02,3229.00,3085.07,3333.97,348.88,321.47,12.90,0000 0000 0000 0000 000000
2014-05-15 00:59:06,0.02,0.76,0.00,21.57,27.65,30.23,6.11,30.92,1007.34,2038.02,3229.00,3085.07,3333.95,350.63,323.49,12.91,0000 0000 0000 0000 000000
2014-05-15 01:00:07,0.00,0.76,0.00,21.56,27.63,30.20,6.10,30.96,1007.35,2038.05,3228.98,3085.06,3333.95,350.26,322.82,12.92,0000 0000 0000 0000 000000
2014-05-15 01:01:07,0.02,0.76,0.00,21.54,27.62,30.19,5.95,30.50,1007.36,2038.12,3228.94,3085.03,3333.88,349.28,321.94,12.92,0000 0000 0000 0000 000000
2014-05-15 01:02:07,0.10,0.76,0.00,21.54,27.60,30.16,5.96,30.83,1007.36,2038.19,3228.82,3085.01,3333.68,349.43,322.51,12.93,0000 0000 0000 0000 000000
2014-05-15 01:03:07,0.10,0.76,0.00,21.54,27.59,30.10,6.02,30.67,1007.40,2038.32,3228.49,3085.01,3333.54,350.32,322.76,12.93,0000 0000 0000 0000 000000
2014-05-15 01:04:07,0.19,0.76,0.00,21.52,27.57,30.09,6.15,31.04,1007.48,2038.62,3228.28,3085.01,3333.50,350.01,322.75,12.94,0000 0000 0000 0000 000000
2014-05-15 01:05:07,0.27,0.76,0.00,21.52,27.55,30.13,5.96,30.75,1007.58,2038.80,3228.15,3085.00,3333.42,350.62,323.69,12.95,0000 0000 0000 0000 000000
2014-05-15 01:06:08,0.15,0.76,0.00,21.52,27.54,30.07,6.02,30.88,1007.72,2038.89,3228.06,3085.00,3333.25,350.26,322.98,12.95,0000 0000 0000 0000 000000
2014-05-15 01:07:08,0.11,0.76,0.00,21.52,27.52,30.04,5.98,30.75,1007.75,2038.94,3228.04,3085.00,3333.18,349.30,322.01,12.96,0000 0000 0000 0000 000000
2014-05-15 01:08:08,0.03,0.76,0.00,21.52,27.51,30.04,6.18,31.00,1007.71,2038.97,3228.07,3085.00,3333.16,349.76,323.29,12.96,0000 0000 0000 0000 000000
2014-05-15 01:09:08,0.01,0.76,0.00,21.52,27.50,30.00,6.15,31.13,1007.70,2038.98,3228.06,3085.00,3333.15,350.94,323.81,12.97,0000 0000 0000 0000 000000
2014-05-15 01:10:09,0.00,0.76,0.00,21.51,27.48,29.91,6.07,30.92,1007.74,2038.99,3228.03,3085.01,3333.13,350.07,322.72,12.97,0000 0000 0000 0000 000000
2014-05-15 01:11:09,0.01,0.76,0.00,21.52,27.47,29.87,5.74,30.71,1007.77,2038.99,3228.01,3085.00,3333.11,348.35,321.44,12.98,0000 0000 0000 0000 000000
2014-05-15 01:12:09,0.00,0.76,0.00,21.52,27.45,29.84,6.03,30.92,1007.80,2038.99,3228.00,3085.00,3333.08,350.26,323.03,12.99,0000 0000 0000 0000 000000
2014-05-15 01:13:09,0.00,0.76,0.00,21.52,27.44,29.80,6.13,30.88,1007.81,2038.99,3227.99,3085.00,3333.03,351.18,323.86,12.99,0000 0000 0000 0000 000000
2014-05-15 01:14:09,0.00,0.76,0.00,21.52,27.42,29.74,6.11,30.92,1007.80,2038.99,3227.99,3085.00,3333.01,350.47,323.20,13.00,0000 0000 0000 0000 000000
2014-05-15 01:15:10,0.00,0.76,0.00,21.52,27.41,29.71,5.90,30.96,1007.79,2039.00,3227.97,3085.00,3333.00,349.86,322.64,13.00,0000 0000 0000 0000 000000
2014-05-15 01:16:10,0.00,0.76,0.00,21.51,27.40,29.65,5.98,30.63,1007.82,2039.01,3227.97,3085.00,3333.02,350.09,322.87,13.01,0000 0000 0000 0000 000000
2014-05-15 01:17:10,0.00,0.76,0.00,21.50,27.37,29.57,6.05,31.21,1007.83,2039.01,3227.99,3085.00,3333.00,350.27,322.99,13.02,0000 0000 0000 0000 000000
2014-05-15 01:18:10,0.01,0.76,0.00,21.50,27.36,29.54,6.09,30.50,1007.82,2039.03,3227.96,3085.00,3333.02,350.70,323.17,13.02,0000 0000 0000 0000 000000
2014-05-15 01:19:11,0.01,0.76,0.00,21.48,27.35,29.41,6.04,30.58,1007.82,2039.06,3227.93,3085.00,3333.01,349.84,322.76,13.03,0000 0000 0000 0000 000000
2014-05-15 01:20:11,0.02,0.76,0.00,21.47,27.33,29.29,6.13,30.46,1007.82,2039.18,3227.88,3085.00,3333.00,351.12,323.97,13.03,0000 0000 0000 0000 000000
2014-05-15 01:21:11,0.13,0.76,0.00,21.45,27.32,29.25,6.07,30.54,1007.80,2039.48,3227.90,3085.01,3333.03,350.01,322.85,13.04,0000 0000 0000 0000 000000
2014-05-15 01:22:11,0.25,0.77,0.00,21.43,27.30,29.19,6.02,30.54,1007.80,2039.74,3227.80,3085.00,3333.02,350.38,323.22,13.04,0000 0000 0000 0000 000000
2014-05-15 01:23:11,0.22,0.77,0.00,21.41,27.28,29.17,6.01,30.54,1007.79,2039.88,3227.69,3085.00,3333.01,349.78,322.69,13.05,0000 0000 0000 0000 000000
2014-05-15 01:24:12,0.10,0.77,0.00,21.39,27.27,29.11,5.98,30.71,1007.81,2039.94,3227.50,3085.00,3333.01,349.73,322.14,13.06,0000 0000 0000 0000 000000
2014-05-15 01:25:12,0.06,0.77,0.00,21.37,27.25,29.05,6.15,31.08,1007.81,2039.95,3227.24,3085.00,3333.01,350.28,323.19,13.06,0000 0000 0000 0000 000000
2014-05-15 01:26:12,0.05,0.77,0.00,21.35,27.23,29.00,6.12,31.13,1007.81,2039.98,3227.09,3085.00,3333.00,350.58,323.50,13.07,0000 0000 0000 0000 000000
2014-05-15 01:27:12,0.04,0.77,0.00,21.32,27.21,28.97,6.07,31.38,1007.82,2039.98,3227.03,3085.00,3333.00,349.80,322.80,13.07,0000 0000 0000 0000 000000
2014-05-15 01:28:12,0.01,0.77,0.00,21.30,27.20,28.87,6.18,30.79,1007.76,2039.98,3227.01,3085.00,3333.00,350.58,323.16,13.08,0000 0000 0000 0000 000000
2014-05-15 01:29:13,0.00,0.77,0.00,21.29,27.18,28.85,5.91,30.79,1007.75,2039.99,3227.00,3085.00,3333.00,349.73,322.76,13.09,0000 0000 0000 0000 000000
2014-05-15 01:30:13,0.00,0.77,0.00,21.27,27.16,28.86,6.00,30.63,1007.77,2039.99,3227.00,3085.00,3333.01,350.08,323.11,13.09,0000 0000 0000 0000 000000
2014-05-15 01:31:13,0.00,0.77,0.00,21.25,27.15,28.79,6.04,30.88,1007.71,2039.99,3227.00,3085.00,3333.00,350.48,323.63,13.10,0000 0000 0000 0000 000000
2014-05-15 01:32:13,0.00,0.77,0.00,21.23,27.13,28.73,5.98,30.63,1007.66,2039.99,3227.00,3085.01,3333.01,350.49,323.40,13.10,0000 0000 0000 0000 000000
2014-05-15 01:33:14,0.00,0.77,0.00,21.22,27.11,28.70,6.00,30.92,1007.67,2040.00,3227.00,3085.02,3333.02,350.37,323.61,13.11,0000 0000 0000 0000 000000
2014-05-15 01:34:14,0.00,0.77,0.00,21.20,27.09,28.66,5.88,30.79,1007.66,2040.01,3227.00,3085.00,3333.01,349.57,322.78,13.11,0000 0000 0000 0000 000000
2014-05-15 01:35:14,0.00,0.77,0.00,21.19,27.07,28.66,5.93,30.88,1007.67,2040.06,3227.00,3085.00,3333.01,350.37,323.34,13.12,0000 0000 0000 0000 000000
2014-05-15 01:36:14,0.05,0.77,0.00,21.17,27.05,28.61,5.98,30.75,1007.74,2040.17,3227.00,3085.03,3333.01,349.65,322.81,13.13,0000 0000 0000 0000 000000
2014-05-15 01:37:14,0.06,0.77,0.00,21.15,27.04,28.60,6.10,31.00,1007.63,2040.42,3227.00,3085.03,3333.06,351.39,324.41,13.13,0000 0000 0000 0000 000000
2014-05-15 01:38:15,0.22,0.77,0.00,21.14,27.02,28.57,6.22,30.79,1007.51,2040.66,3226.98,3085.04,3333.05,351.39,324.37,13.14,0000 0000 0000 0000 000000
2014-05-15 01:39:15,0.16,0.77,0.00,21.13,27.00,28.55,5.88,30.83,1007.62,2040.80,3226.98,3085.04,3333.04,350.15,323.27,13.14,0000 0000 0000 0000 000000
2014-05-15 01:40:15,0.10,0.77,0.00,21.12,26.98,28.50,5.80,30.83,1007.59,2040.91,3226.97,3085.03,3333.06,348.64,321.89,13.15,0000 0000 0000 0000 000000
2014-05-15 01:41:16,0.08,0.77,0.00,21.10,26.96,28.44,6.01,31.25,1007.53,2040.94,3226.92,3085.03,3333.06,350.60,323.46,13.16,0000 0000 0000 0000 000000
2014-05-15 01:42:16,0.03,0.77,0.00,21.08,26.94,28.40,6.08,30.67,1007.58,2040.98,3226.81,3085.04,3333.09,349.98,323.05,13.16,0000 0000 0000 0000 000000
2014-05-15 01:43:16,0.02,0.77,0.00,21.07,26.92,28.35,5.99,30.92,1007.44,2040.99,3226.76,3085.05,3333.07,349.66,322.91,13.17,0000 0000 0000 0000 000000
2014-05-15 01:44:16,0.01,0.77,0.00,21.05,26.90,28.32,5.98,30.92,1007.37,2040.99,3226.89,3085.07,3333.03,349.51,322.79,13.17,0000 0000 0000 0000 000000
2014-05-15 01:45:16,-0.02,0.77,0.00,21.04,26.88,28.32,6.17,31.17,1007.38,2040.99,3226.92,3085.19,3333.09,350.38,323.86,13.18,0000 0000 0000 0000 000000
2014-05-15 01:46:17,-0.03,0.77,0.00,21.03,26.87,28.30,5.92,30.75,1007.36,2040.99,3226.94,3085.34,3333.18,350.63,323.75,13.18,0000 0000 0000 0000 000000
2014-05-15 01:47:17,-0.03,0.77,0.00,21.02,26.85,28.28,5.92,31.08,1007.37,2041.04,3226.93,3085.44,3333.24,349.75,322.97,13.19,0000 0000 0000 0000 000000
2014-05-15 01:48:17,-0.01,0.77,0.00,21.01,26.83,28.25,5.90,30.67,1007.36,2041.05,3226.89,3085.58,3333.32,349.46,322.86,13.20,0000 0000 0000 0000 000000
2014-05-15 01:49:17,-0.01,0.77,0.00,20.99,26.81,28.19,5.86,31.00,1007.36,2041.16,3226.74,3085.61,3333.37,349.04,322.32,13.20,0000 0000 0000 0000 000000
2014-05-15 01:50:18,0.13,0.77,0.00,20.99,26.79,28.18,5.84,31.42,1007.39,2041.30,3226.63,3085.57,3333.45,349.88,323.10,13.21,0000 0000 0000 0000 000000
2014-05-15 01:51:18,0.13,0.77,0.00,20.97,26.77,28.13,6.15,31.29,1007.38,2041.52,3226.70,3085.64,3333.54,350.25,322.90,13.21,0000 0000 0000 0000 000000
2014-05-15 01:52:18,0.13,0.77,0.00,20.97,26.75,28.14,6.09,31.08,1007.38,2041.75,3226.61,3085.75,3333.61,350.36,323.34,13.22,0000 0000 0000 0000 000000
2014-05-15 01:53:18,0.14,0.78,0.00,20.95,26.73,28.12,6.05,30.96,1007.40,2041.89,3226.67,3085.88,3333.77,350.79,323.70,13.23,0000 0000 0000 0000 000000
2014-05-15 01:54:18,0.03,0.78,0.00,20.96,26.72,28.11,5.90,31.08,1007.41,2041.95,3226.81,3085.95,3333.88,350.19,323.56,13.23,0000 0000 0000 0000 000000
2014-05-15 01:55:19,-0.01,0.78,0.00,20.94,26.70,28.14,6.08,30.92,1007.37,2041.97,3226.80,3085.97,3333.93,350.75,323.96,13.24,0000 0000 0000 0000 000000
2014-05-15 01:56:19,0.01,0.78,0.00,20.94,26.68,28.13,6.02,31.04,1007.47,2041.98,3226.53,3085.98,3333.93,349.81,323.45,13.24,0000 0000 0000 0000 000000
2014-05-15 01:57:19,0.04,0.78,0.00,20.92,26.66,28.07,5.88,30.96,1007.46,2041.99,3226.47,3085.99,3333.94,349.78,323.11,13.25,0000 0000 0000 0000 000000
2014-05-15 01:58:19,-0.00,0.78,0.00,20.92,26.64,28.03,6.16,30.96,1007.52,2041.99,3226.57,3085.99,3333.96,351.07,324.33,13.26,0000 0000 0000 0000 000000
2014-05-15 01:59:19,-0.01,0.78,0.00,20.91,26.62,28.04,6.00,31.04,1007.58,2041.99,3226.41,3085.99,3333.96,349.70,323.09,13.26,0000 0000 0000 0000 000000
2014-05-15 02:00:20,0.02,0.78,0.00,20.90,26.60,28.01,5.98,31.04,1007.56,2042.01,3226.26,3085.96,3333.92,350.18,323.54,13.27,0000 0000 0000 0000 000000
2014-05-15 02:01:20,0.04,0.78,0.00,20.89,26.58,28.05,5.98,30.75,1007.56,2042.06,3226.22,3085.98,3333.92,350.23,323.60,13.27,0000 0000 0000 0000 000000
2014-05-15 02:02:20,0.04,0.78,0.00,20.89,26.57,28.02,6.02,31.04,1007.62,2042.08,3226.23,3085.99,3333.94,350.33,323.70,13.28,0000 0000 0000 0000 000000
2014-05-15 02:03:20,0.01,0.78,0.00,20.89,26.56,28.01,6.10,31.13,1007.66,2042.15,3226.16,3085.98,3333.96,349.85,323.27,13.28,0000 0000 0000 0000 000000
2014-05-15 02:04:21,0.05,0.78,0.00,20.88,26.54,27.98,5.87,31.00,1007.76,2042.45,3226.16,3085.99,3333.98,348.69,322.86,13.29,0000 0000 0000 0000 000000
2014-05-15 02:05:21,0.26,0.78,0.00,20.87,26.52,27.97,5.90,30.92,1007.78,2042.74,3226.22,3085.99,3333.97,349.67,323.17,13.30,0000 0000 0000 0000 000000
2014-05-15 02:06:21,0.20,0.78,0.00,20.87,26.50,27.95,6.00,31.08,1007.78,2042.88,3226.13,3085.99,3333.98,349.92,323.84,13.30,0000 0000 0000 0000 000000
2014-05-15 02:07:21,0.12,0.78,0.00,20.87,26.48,27.93,5.93,30.67,1007.75,2042.94,3226.13,3085.99,3333.98,349.64,323.59,13.31,0000 0000 0000 0000 000000
2014-05-15 02:08:22,0.04,0.78,0.00,20.87,26.47,27.90,6.18,31.04,1007.71,2042.98,3226.08,3085.99,3333.97,350.44,323.86,13.31,0000 0000 0000 0000 000000
2014-05-15 02:09:22,0.02,0.78,0.00,20.86,26.45,27.90,5.99,31.08,1007.71,2042.98,3226.06,3085.99,3333.99,350.35,323.80,13.32,0000 0000 0000 0000 000000
2014-05-15 02:10:22,0.00,0.78,0.00,20.85,26.43,27.91,5.96,30.88,1007.70,2042.99,3226.06,3085.99,3333.99,349.69,322.85,13.33,0000 0000 0000 0000 000000
2014-05-15 02:11:22,0.01,0.78,0.00,20.85,26.41,27.89,6.08,30.96,1007.76,2042.99,3226.05,3085.99,3333.99,350.56,323.99,13.33,0000 0000 0000 0000 000000
2014-05-15 02:12:22,0.00,0.78,0.00,20.85,26.40,27.86,6.09,30.71,1007.77,2043.00,3226.03,3085.99,3333.99,350.31,323.86,13.34,0000 0000 0000 0000 000000
2014-05-15 02:13:23,0.00,0.78,0.00,20.84,26.38,27.87,6.02,30.58,1007.79,2043.00,3226.01,3085.99,3333.98,349.91,323.11,13.34,0000 0000 0000 0000 000000
2014-05-15 02:14:23,0.01,0.78,0.00,20.84,26.36,27.87,5.87,30.83,1007.77,2043.01,3226.03,3085.99,3333.98,349.56,323.11,13.35,0000 0000 0000 0000 000000
2014-05-15 02:15:23,0.00,0.78,0.00,20.85,26.35,27.85,5.93,30.75,1007.80,2043.00,3226.02,3085.99,3333.99,350.01,323.83,13.35,0000 0000 0000 0000 000000
2014-05-15 02:16:24,0.00,0.78,0.00,20.85,26.33,27.87,6.02,31.08,1007.80,2043.02,3226.00,3085.99,3333.99,351.06,324.18,13.36,0000 0000 0000 0000 000000
2014-05-15 02:17:24,0.03,0.78,0.00,20.84,26.32,27.85,6.02,31.00,1007.80,2043.18,3226.00,3086.00,3333.99,349.80,323.33,13.37,0000 0000 0000 0000 000000
2014-05-15 02:18:24,0.13,0.78,0.00,20.84,26.30,27.85,6.06,31.04,1007.81,2043.51,3226.00,3086.01,3333.99,350.58,324.05,13.37,0000 0000 0000 0000 000000
2014-05-15 02:19:24,0.25,0.78,0.00,20.85,26.29,27.83,5.95,31.00,1007.82,2043.78,3226.00,3086.02,3333.99,349.62,323.17,13.38,0000 0000 0000 0000 000000
2014-05-15 02:20:25,0.18,0.78,0.00,20.84,26.27,27.87,5.88,30.79,1007.80,2043.90,3226.00,3086.05,3333.99,349.72,323.25,13.38,0000 0000 0000 0000 000000
2014-05-15 02:21:25,0.08,0.79,0.00,20.84,26.25,27.88,5.91,30.83,1007.82,2043.95,3226.00,3086.03,3333.99,349.50,322.54,13.39,0000 0000 0000 0000 000000
2014-05-15 02:22:25,0.03,0.79,0.00,20.84,26.24,27.84,5.98,30.79,1007.81,2043.98,3226.00,3086.02,3333.99,350.01,323.75,13.40,0000 0000 0000 0000 000000
2014-05-15 02:23:26,0.02,0.79,0.00,20.84,26.22,27.86,5.87,30.71,1007.80,2043.99,3226.00,3086.02,3333.99,349.65,323.60,13.40,0000 0000 0000 0000 000000
2014-05-15 02:24:26,0.01,0.79,0.00,20.84,26.21,27.90,6.04,31.25,1007.81,2043.99,3226.00,3086.02,3333.99,350.34,323.60,13.41,0000 0000 0000 0000 000000
2014-05-15 02:25:26,0.00,0.79,0.00,20.84,26.20,27.87,5.87,31.04,1007.81,2043.99,3225.99,3086.01,3333.99,349.64,323.42,13.41,0000 0000 0000 0000 000000
2014-05-15 02:26:27,0.00,0.79,0.00,20.85,26.18,27.89,6.12,31.54,1007.83,2043.99,3225.99,3086.00,3333.99,351.07,324.50,13.42,0000 0000 0000 0000 000000
2014-05-15 02:27:27,0.00,0.79,0.00,20.85,26.16,27.88,5.96,31.58,1007.81,2043.99,3225.95,3086.01,3333.99,350.25,323.88,13.42,0000 0000 0000 0000 000000
2014-05-15 02:28:27,0.00,0.79,0.00,20.85,26.15,27.86,6.04,31.13,1007.80,2044.00,3225.96,3086.02,3333.99,349.63,323.57,13.43,0000 0000 0000 0000 000000
2014-05-15 02:29:27,0.00,0.79,0.00,20.85,26.14,27.85,5.80,31.00,1007.82,2044.02,3225.95,3086.05,3333.99,349.06,322.98,13.44,0000 0000 0000 0000 000000
2014-05-15 02:30:28,0.01,0.79,0.00,20.85,26.12,27.85,5.88,30.71,1007.82,2044.03,3225.92,3086.05,3333.99,349.55,323.16,13.44,0000 0000 0000 0000 000000
2014-05-15 02:31:28,0.00,0.79,0.00,20.86,26.11,27.82,5.94,30.92,1007.82,2044.04,3225.92,3086.03,3333.99,350.61,324.52,13.45,0000 0000 0000 0000 000000
2014-05-15 02:32:28,0.04,0.79,0.00,20.87,26.10,27.78,6.02,31.13,1007.83,2044.16,3225.68,3086.05,3333.99,349.34,322.66,13.45,0000 0000 0000 0000 000000
2014-05-15 02:33:29,0.15,0.79,0.00,20.86,26.08,27.87,6.12,31.67,1007.81,2044.44,3225.50,3086.06,3333.99,350.59,324.05,13.46,0000 0000 0000 0000 000000
2014-05-15 02:34:29,0.24,0.79,0.00,20.86,26.07,27.85,5.97,31.08,1007.82,2044.69,3225.34,3086.06,3333.99,350.41,324.30,13.47,0000 0000 0000 0000 000000
2014-05-15 02:35:29,0.21,0.79,0.00,20.86,26.05,27.86,6.13,31.21,1007.83,2044.79,3225.17,3086.03,3333.99,350.78,324.23,13.47,0000 0000 0000 0000 000000
2014-05-15 02:36:30,0.10,0.79,0.00,20.87,26.04,27.89,6.06,31.04,1007.83,2044.91,3225.11,3086.07,3333.99,350.61,324.14,13.48,0000 0000 0000 0000 000000